Time,TemperatureF,DewpointF,PressureIn,WindDirection,WindDirectionDegrees,WindSpeedMPH,WindSpeedGustMPH,Humidity,HourlyPrecipIn,Conditions,Clouds,dailyrainin,SoftwareType,DateUTC
2013-01-10 00:00:00,62.3,61.2,29.47,SE,129,0.0,4.0,96,0.00,,,0.01,VWS V14.01,2013-01-10 06:00:00,
2013-01-10 00:03:00,62.4,61.2,29.47,SSE,155,0.0,2.0,96,0.00,,,0.00,VWS V14.01,2013-01-10 06:03:00,
2013-01-10 00:08:00,62.4,61.2,29.47,SW,228,0.0,3.0,96,0.00,,,0.00,VWS V14.01,2013-01-10 06:08:00,
2013-01-10 00:10:00,62.4,61.2,29.47,SW,223,0.0,3.0,96,0.00,,,0.00,VWS V14.01,2013-01-10 06:10:00,
2013-01-10 00:13:00,62.4,61.2,29.47,SW,219,0.0,2.0,96,0.00,,,0.00,VWS V14.01,2013-01-10 06:13:00,
2013-01-10 00:18:00,62.4,61.2,29.47,South,178,1.0,3.0,96,0.00,,,0.00,VWS V14.01,2013-01-10 06:18:00,
2013-01-10 00:20:00,62.5,61.3,29.47,South,177,1.0,3.0,96,0.00,,,0.00,VWS V14.01,2013-01-10 06:20:00,
2013-01-10 00:23:00,62.5,61.3,29.47,ESE,109,1.0,3.0,96,0.00,,,0.00,VWS V14.01,2013-01-10 06:23:00,
2013-01-10 00:28:00,62.5,61.3,29.47,SSE,156,0.0,6.0,96,0.00,,,0.00,VWS V14.01,2013-01-10 06:28:00,
2013-01-10 00:30:00,62.6,61.5,29.47,SSE,155,0.0,6.0,96,0.00,,,0.00,VWS V14.01,2013-01-10 06:30:00,
2013-01-10 00:33:00,62.6,61.5,29.48,SE,126,0.0,2.0,96,0.00,,,0.00,VWS V14.01,2013-01-10 06:33:00,
2013-01-10 00:38:00,62.6,61.5,29.48,SSE,150,1.0,4.0,96,0.00,,,0.00,VWS V14.01,2013-01-10 06:38:00,
2013-01-10 00:40:00,62.6,61.5,29.47,SSE,150,1.0,4.0,96,0.00,,,0.00,VWS V14.01,2013-01-10 06:40:00,
2013-01-10 00:43:00,62.6,61.5,29.47,SSE,152,1.0,3.0,96,0.00,,,0.00,VWS V14.01,2013-01-10 06:43:00,
2013-01-10 00:48:00,62.6,61.5,29.47,East,100,1.0,4.0,96,0.00,,,0.00,VWS V14.01,2013-01-10 06:48:00,
2013-01-10 00:50:00,62.6,61.5,29.47,ESE,119,2.0,4.0,96,0.00,,,0.00,VWS V14.01,2013-01-10 06:50:00,
2013-01-10 00:53:00,62.7,61.5,29.46,ESE,115,1.0,4.0,96,0.00,,,0.00,VWS V14.01,2013-01-10 06:53:00,
2013-01-10 00:58:00,62.7,61.5,29.46,SE,137,0.0,9.0,96,0.00,,,0.00,VWS V14.01,2013-01-10 06:58:00,
2013-01-10 01:00:00,62.7,61.5,29.46,SE,134,0.0,9.0,96,0.00,,,0.00,VWS V14.01,2013-01-10 07:00:00,
2013-01-10 01:03:00,62.8,61.7,29.46,SSE,165,3.0,3.0,96,0.00,,,0.00,VWS V14.01,2013-01-10 07:03:00,
2013-01-10 01:08:00,62.8,61.7,29.46,SSE,162,1.0,5.0,96,0.00,,,0.00,VWS V14.01,2013-01-10 07:08:00,
2013-01-10 01:10:00,62.8,61.7,29.46,SSE,162,2.0,5.0,96,0.00,,,0.00,VWS V14.01,2013-01-10 07:10:00,
2013-01-10 01:13:00,62.7,61.5,29.45,SE,134,0.0,3.0,96,0.00,,,0.00,VWS V14.01,2013-01-10 07:13:00,
2013-01-10 01:18:00,62.7,61.5,29.45,ENE,76,2.0,5.0,96,0.00,,,0.00,VWS V14.01,2013-01-10 07:18:00,
2013-01-10 01:20:00,62.7,61.5,29.45,SE,133,2.0,5.0,96,0.00,,,0.00,VWS V14.01,2013-01-10 07:20:00,
2013-01-10 01:23:00,62.7,61.5,29.45,South,186,0.0,6.0,96,0.00,,,0.00,VWS V14.01,2013-01-10 07:23:00,
2013-01-10 01:28:00,62.8,61.7,29.44,South,174,0.0,6.0,96,0.00,,,0.00,VWS V14.01,2013-01-10 07:28:00,
2013-01-10 01:30:00,62.8,61.7,29.44,South,176,1.0,6.0,96,0.00,,,0.00,VWS V14.01,2013-01-10 07:30:00,
2013-01-10 01:33:00,62.8,61.7,29.44,South,170,0.0,4.0,96,0.00,,,0.00,VWS V14.01,2013-01-10 07:33:00,
2013-01-10 01:38:00,62.7,61.5,29.44,South,182,0.0,5.0,96,0.00,,,0.00,VWS V14.01,2013-01-10 07:38:00,
2013-01-10 01:40:00,62.7,61.5,29.45,South,182,0.0,5.0,96,0.00,,,0.00,VWS V14.01,2013-01-10 07:40:00,
2013-01-10 01:43:00,62.7,61.5,29.45,South,182,2.0,2.0,96,0.00,,,0.00,VWS V14.01,2013-01-10 07:43:00,
2013-01-10 01:48:00,62.7,61.5,29.45,South,175,1.0,5.0,96,0.00,,,0.00,VWS V14.01,2013-01-10 07:48:00,
2013-01-10 01:50:00,62.7,61.5,29.45,South,175,0.0,5.0,96,0.00,,,0.00,VWS V14.01,2013-01-10 07:50:00,
2013-01-10 01:53:00,62.7,61.5,29.44,South,175,0.0,3.0,96,0.00,,,0.00,VWS V14.01,2013-01-10 07:53:00,
2013-01-10 01:58:00,62.7,61.5,29.45,SSE,164,2.0,5.0,96,0.00,,,0.00,VWS V14.01,2013-01-10 07:58:00,
2013-01-10 02:00:00,62.6,61.5,29.44,SSE,164,0.0,5.0,96,0.00,,,0.00,VWS V14.01,2013-01-10 08:00:00,
2013-01-10 02:03:00,62.6,61.5,29.44,SSE,165,2.0,3.0,96,0.00,,,0.00,VWS V14.01,2013-01-10 08:03:00,
2013-01-10 02:08:00,62.6,61.5,29.44,South,182,1.0,6.0,96,0.00,,,0.00,VWS V14.01,2013-01-10 08:08:00,
2013-01-10 02:10:00,62.6,61.5,29.44,South,182,0.0,6.0,96,0.00,,,0.00,VWS V14.01,2013-01-10 08:10:00,
2013-01-10 02:13:00,62.6,61.5,29.44,South,188,0.0,2.0,96,0.00,,,0.00,VWS V14.01,2013-01-10 08:13:00,
2013-01-10 02:18:00,62.5,61.3,29.44,South,184,1.0,3.0,96,0.00,,,0.00,VWS V14.01,2013-01-10 08:18:00,
2013-01-10 02:20:00,62.5,61.3,29.44,South,184,1.0,3.0,96,0.00,,,0.00,VWS V14.01,2013-01-10 08:20:00,
2013-01-10 02:23:00,62.5,61.3,29.44,South,184,0.0,2.0,96,0.00,,,0.00,VWS V14.01,2013-01-10 08:23:00,
2013-01-10 02:28:00,62.5,61.3,29.45,ESE,119,0.0,7.0,96,0.00,,,0.00,VWS V14.01,2013-01-10 08:28:00,
2013-01-10 02:30:00,62.5,61.3,29.45,SE,130,0.0,7.0,96,0.00,,,0.00,VWS V14.01,2013-01-10 08:30:00,
2013-01-10 02:33:00,62.5,61.3,29.45,SSE,149,0.0,4.0,96,0.00,,,0.00,VWS V14.01,2013-01-10 08:33:00,
2013-01-10 02:38:00,62.4,61.2,29.44,SSE,166,0.0,4.0,96,0.00,,,0.00,VWS V14.01,2013-01-10 08:38:00,
2013-01-10 02:40:00,62.4,61.2,29.45,SSW,194,0.0,4.0,96,0.00,,,0.00,VWS V14.01,2013-01-10 08:40:00,
2013-01-10 02:43:00,62.3,61.2,29.45,SSW,194,0.0,2.0,96,0.00,,,0.00,VWS V14.01,2013-01-10 08:43:00,
2013-01-10 02:48:00,62.3,61.2,29.45,South,179,0.0,3.0,96,0.00,,,0.00,VWS V14.01,2013-01-10 08:48:00,
2013-01-10 02:50:00,62.3,61.2,29.45,South,173,2.0,3.0,96,0.00,,,0.00,VWS V14.01,2013-01-10 08:50:00,
2013-01-10 02:53:00,62.3,61.2,29.45,SSW,198,2.0,5.0,96,0.00,,,0.00,VWS V14.01,2013-01-10 08:53:00,
2013-01-10 02:58:00,62.2,61.0,29.45,SSW,196,0.0,6.0,96,0.00,,,0.00,VWS V14.01,2013-01-10 08:58:00,
2013-01-10 03:00:00,62.2,61.0,29.45,SSW,196,4.0,6.0,96,0.00,,,0.00,VWS V14.01,2013-01-10 09:00:00,
2013-01-10 03:03:00,62.1,61.0,29.45,SSW,196,3.0,4.0,96,0.00,,,0.00,VWS V14.01,2013-01-10 09:03:00,
2013-01-10 03:08:00,62.1,61.0,29.45,SSW,195,1.0,4.0,96,0.00,,,0.00,VWS V14.01,2013-01-10 09:08:00,
2013-01-10 03:10:00,62.0,60.8,29.44,SSW,195,0.0,4.0,96,0.00,,,0.00,VWS V14.01,2013-01-10 09:10:00,
2013-01-10 03:13:00,62.0,60.8,29.45,SSW,193,0.0,4.0,96,0.00,,,0.00,VWS V14.01,2013-01-10 09:13:00,
2013-01-10 03:18:00,61.8,60.7,29.45,SSE,167,0.0,4.0,96,0.00,,,0.00,VWS V14.01,2013-01-10 09:18:00,
2013-01-10 03:20:00,61.8,60.7,29.45,SSE,166,0.0,4.0,96,0.00,,,0.00,VWS V14.01,2013-01-10 09:20:00,
2013-01-10 03:30:00,61.7,60.5,29.45,South,180,1.0,9.0,96,0.00,,,0.00,VWS V14.01,2013-01-10 09:30:00,
2013-01-10 03:40:00,61.7,60.5,29.45,South,180,1.0,5.0,96,0.00,,,0.00,VWS V14.01,2013-01-10 09:40:00,
2013-01-10 03:50:00,61.6,60.5,29.44,South,180,1.0,5.0,96,0.00,,,0.00,VWS V14.01,2013-01-10 09:50:00,
2013-01-10 04:00:00,61.4,60.2,29.45,SSE,158,1.0,5.0,96,0.00,,,0.00,VWS V14.01,2013-01-10 10:00:00,
2013-01-10 04:10:00,61.3,60.2,29.45,South,180,2.0,6.0,96,0.00,,,0.00,VWS V14.01,2013-01-10 10:10:00,
2013-01-10 04:20:00,61.0,59.9,29.45,SSW,202,1.0,6.0,96,0.00,,,0.00,VWS V14.01,2013-01-10 10:20:00,
2013-01-10 04:30:00,60.6,59.5,29.44,South,180,1.0,5.0,96,0.00,,,0.00,VWS V14.01,2013-01-10 10:30:00,
2013-01-10 04:40:00,60.1,58.7,29.44,South,180,0.0,3.0,95,0.00,,,0.00,VWS V14.01,2013-01-10 10:40:00,
2013-01-10 04:50:00,59.6,58.2,29.44,South,180,1.0,4.0,95,0.00,,,0.00,VWS V14.01,2013-01-10 10:50:00,
2013-01-10 05:00:00,59.2,58.1,29.44,South,180,1.0,5.0,96,0.00,,,0.00,VWS V14.01,2013-01-10 11:00:00,
2013-01-10 05:10:00,58.8,57.4,29.44,South,180,0.0,3.0,95,0.00,,,0.00,VWS V14.01,2013-01-10 11:10:00,
2013-01-10 05:20:00,58.5,57.4,29.43,South,180,0.0,3.0,96,0.00,,,0.00,VWS V14.01,2013-01-10 11:20:00,
2013-01-10 05:30:00,58.3,57.2,29.43,South,180,0.0,2.0,96,0.00,,,0.00,VWS V14.01,2013-01-10 11:30:00,
2013-01-10 05:40:00,58.2,57.1,29.43,South,180,1.0,4.0,96,0.00,,,0.00,VWS V14.01,2013-01-10 11:40:00,
2013-01-10 05:50:00,57.8,56.7,29.44,SSE,158,2.0,9.0,96,0.00,,,0.00,VWS V14.01,2013-01-10 11:50:00,
2013-01-10 06:00:00,57.6,56.5,29.44,South,180,1.0,5.0,96,0.00,,,0.00,VWS V14.01,2013-01-10 12:00:00,
2013-01-10 06:10:00,57.4,56.3,29.45,SSE,158,0.0,4.0,96,0.00,,,0.00,VWS V14.01,2013-01-10 12:10:00,
2013-01-10 06:20:00,57.5,56.4,29.45,SSE,158,1.0,5.0,96,0.00,,,0.00,VWS V14.01,2013-01-10 12:20:00,
2013-01-10 06:30:00,57.3,56.2,29.45,South,180,1.0,3.0,96,0.00,,,0.00,VWS V14.01,2013-01-10 12:30:00,
2013-01-10 06:40:00,56.9,55.5,29.45,South,180,0.0,5.0,95,0.00,,,0.00,VWS V14.01,2013-01-10 12:40:00,
2013-01-10 06:50:00,56.5,55.4,29.44,South,180,0.0,3.0,96,0.00,,,0.00,VWS V14.01,2013-01-10 12:50:00,
2013-01-10 07:00:00,56.2,54.8,29.44,South,180,0.0,3.0,95,0.00,,,0.00,VWS V14.01,2013-01-10 13:00:00,
2013-01-10 07:10:00,55.9,54.8,29.45,South,180,1.0,4.0,96,0.00,,,0.00,VWS V14.01,2013-01-10 13:10:00,
2013-01-10 07:20:00,55.7,54.3,29.46,South,180,0.0,2.0,95,0.00,,,0.00,VWS V14.01,2013-01-10 13:20:00,
2013-01-10 07:30:00,55.5,54.4,29.46,SW,225,1.0,5.0,96,0.00,,,0.00,VWS V14.01,2013-01-10 13:30:00,
2013-01-10 07:40:00,55.1,53.7,29.45,SW,225,1.0,5.0,95,0.00,,,0.00,VWS V14.01,2013-01-10 13:40:00,
2013-01-10 07:50:00,54.7,53.6,29.46,SW,225,1.0,6.0,96,0.00,,,0.00,VWS V14.01,2013-01-10 13:50:00,
2013-01-10 08:00:00,54.4,53.0,29.46,SW,225,0.0,3.0,95,0.00,,,0.00,VWS V14.01,2013-01-10 14:00:00,
2013-01-10 08:10:00,54.2,53.1,29.47,SW,225,1.0,6.0,96,0.00,,,0.00,VWS V14.01,2013-01-10 14:10:00,
2013-01-10 08:20:00,54.1,53.0,29.46,SW,225,1.0,5.0,96,0.00,,,0.00,VWS V14.01,2013-01-10 14:20:00,
2013-01-10 08:30:00,54.1,53.0,29.46,SW,225,1.0,5.0,96,0.00,,,0.00,VWS V14.01,2013-01-10 14:30:00,
2013-01-10 08:40:00,54.2,53.1,29.46,SW,225,1.0,6.0,96,0.00,,,0.00,VWS V14.01,2013-01-10 14:40:00,
2013-01-10 08:50:00,54.4,53.3,29.47,SW,225,2.0,6.0,96,0.00,,,0.00,VWS V14.01,2013-01-10 14:50:00,
2013-01-10 09:00:00,54.9,53.8,29.46,SW,225,1.0,7.0,96,0.00,,,0.00,VWS V14.01,2013-01-10 15:00:00,
2013-01-10 09:10:00,53.9,52.5,29.46,SW,225,1.0,5.0,95,0.00,,,0.00,VWS V14.01,2013-01-10 15:10:00,
2013-01-10 09:20:00,54.4,53.0,29.47,WSW,248,1.0,8.0,95,0.00,,,0.00,VWS V14.01,2013-01-10 15:20:00,
2013-01-10 09:30:00,55.5,54.1,29.47,WSW,248,1.0,7.0,95,0.00,,,0.00,VWS V14.01,2013-01-10 15:30:00,
2013-01-10 09:40:00,56.7,55.0,29.48,SW,225,1.0,6.0,94,0.00,,,0.00,VWS V14.01,2013-01-10 15:40:00,
2013-01-10 09:50:00,56.6,54.3,29.48,SSE,158,1.0,8.0,92,0.00,,,0.00,VWS V14.01,2013-01-10 15:50:00,
2013-01-10 10:00:00,56.8,53.9,29.49,SSW,202,2.0,7.0,90,0.00,,,0.00,VWS V14.01,2013-01-10 16:00:00,
2013-01-10 10:10:00,57.2,53.7,29.49,South,180,2.0,7.0,88,0.00,,,0.00,VWS V14.01,2013-01-10 16:10:00,
2013-01-10 10:20:00,58.1,54.3,29.48,SW,225,2.0,7.0,87,0.00,,,0.00,VWS V14.01,2013-01-10 16:20:00,
2013-01-10 10:30:00,58.1,53.9,29.50,South,180,2.0,8.0,86,0.00,,,0.00,VWS V14.01,2013-01-10 16:30:00,
2013-01-10 10:40:00,58.9,54.7,29.50,SW,225,2.0,7.0,86,0.00,,,0.00,VWS V14.01,2013-01-10 16:40:00,
2013-01-10 10:50:00,59.3,54.5,29.51,South,180,2.0,10.0,84,0.00,,,0.00,VWS V14.01,2013-01-10 16:50:00,
2013-01-10 11:00:00,59.2,53.7,29.50,West,270,2.0,10.0,82,0.00,,,0.00,VWS V14.01,2013-01-10 17:00:00,
2013-01-10 11:10:00,59.3,53.8,29.49,West,270,2.0,8.0,82,0.00,,,0.00,VWS V14.01,2013-01-10 17:10:00,
2013-01-10 11:20:00,59.8,54.0,29.49,SW,225,3.0,8.0,81,0.00,,,0.00,VWS V14.01,2013-01-10 17:20:00,
2013-01-10 11:30:00,60.0,53.8,29.48,SW,225,3.0,8.0,80,0.00,,,0.00,VWS V14.01,2013-01-10 17:30:00,
2013-01-10 11:40:00,59.6,53.1,29.47,SW,225,2.0,8.0,79,0.00,,,0.00,VWS V14.01,2013-01-10 17:40:00,
2013-01-10 11:50:00,59.0,51.8,29.46,SW,225,3.0,11.0,77,0.00,,,0.00,VWS V14.01,2013-01-10 17:50:00,
2013-01-10 12:00:00,58.0,51.2,29.46,SW,225,1.0,6.0,78,0.00,,,0.00,VWS V14.01,2013-01-10 18:00:00,
2013-01-10 12:10:00,58.2,52.1,29.46,SW,225,2.0,8.0,80,0.00,,,0.00,VWS V14.01,2013-01-10 18:10:00,
2013-01-10 12:20:00,59.9,53.0,29.46,SW,225,3.0,9.0,78,0.00,,,0.00,VWS V14.01,2013-01-10 18:20:00,
2013-01-10 12:30:00,61.0,51.2,29.46,SW,225,4.0,11.0,70,0.00,,,0.00,VWS V14.01,2013-01-10 18:30:00,
2013-01-10 12:40:00,59.8,50.4,29.46,South,180,2.0,8.0,71,0.00,,,0.00,VWS V14.01,2013-01-10 18:40:00,
2013-01-10 12:50:00,60.4,51.3,29.45,SW,225,3.0,9.0,72,0.00,,,0.00,VWS V14.01,2013-01-10 18:50:00,
2013-01-10 13:00:00,60.6,51.9,29.44,SSW,202,2.0,7.0,73,0.00,,,0.00,VWS V14.01,2013-01-10 19:00:00,
2013-01-10 13:10:00,59.7,50.3,29.44,SSE,158,4.0,11.0,71,0.00,,,0.00,VWS V14.01,2013-01-10 19:10:00,
2013-01-10 13:20:00,59.1,50.8,29.44,SSW,202,3.0,9.0,74,0.00,,,0.00,VWS V14.01,2013-01-10 19:20:00,
2013-01-10 13:30:00,58.6,50.7,29.44,SW,225,3.0,10.0,75,0.00,,,0.00,VWS V14.01,2013-01-10 19:30:00,
2013-01-10 13:40:00,58.9,51.7,29.43,SW,225,3.0,8.0,77,0.00,,,0.00,VWS V14.01,2013-01-10 19:40:00,
2013-01-10 13:50:00,60.4,51.0,29.43,SW,225,3.0,9.0,71,0.00,,,0.00,VWS V14.01,2013-01-10 19:50:00,
2013-01-10 14:00:00,59.8,50.0,29.43,SW,225,3.0,11.0,70,0.00,,,0.00,VWS V14.01,2013-01-10 20:00:00,
2013-01-10 14:10:00,59.3,49.9,29.43,SW,225,3.0,9.0,71,0.00,,,0.00,VWS V14.01,2013-01-10 20:10:00,
2013-01-10 14:20:00,59.8,51.1,29.43,SW,225,2.0,7.0,73,0.00,,,0.00,VWS V14.01,2013-01-10 20:20:00,
2013-01-10 14:30:00,60.5,50.7,29.43,SSW,202,3.0,10.0,70,0.00,,,0.00,VWS V14.01,2013-01-10 20:30:00,
2013-01-10 14:40:00,60.2,50.4,29.42,South,180,2.0,9.0,70,0.00,,,0.00,VWS V14.01,2013-01-10 20:40:00,
2013-01-10 14:50:00,61.0,51.9,29.44,South,180,2.0,10.0,72,0.00,,,0.00,VWS V14.01,2013-01-10 20:50:00,
2013-01-10 15:00:00,61.2,50.2,29.44,SW,225,2.0,8.0,67,0.00,,,0.00,VWS V14.01,2013-01-10 21:00:00,
2013-01-10 15:10:00,60.2,49.2,29.44,SSW,202,3.0,10.0,67,0.00,,,0.00,VWS V14.01,2013-01-10 21:10:00,
2013-01-10 15:20:00,60.2,50.0,29.43,SW,225,3.0,10.0,69,0.00,,,0.00,VWS V14.01,2013-01-10 21:20:00,
2013-01-10 15:30:00,60.4,49.8,29.44,SSW,202,2.0,6.0,68,0.00,,,0.00,VWS V14.01,2013-01-10 21:30:00,
2013-01-10 15:40:00,60.1,49.5,29.43,WSW,248,3.0,10.0,68,0.00,,,0.00,VWS V14.01,2013-01-10 21:40:00,
2013-01-10 15:50:00,60.1,49.5,29.43,SW,225,2.0,7.0,68,0.00,,,0.00,VWS V14.01,2013-01-10 21:50:00,
2013-01-10 16:00:00,60.4,50.2,29.44,SW,225,3.0,11.0,69,0.00,,,0.00,VWS V14.01,2013-01-10 22:00:00,
2013-01-10 16:10:00,59.7,49.1,29.44,SW,225,3.0,9.0,68,0.00,,,0.00,VWS V14.01,2013-01-10 22:10:00,
2013-01-10 16:20:00,59.3,49.1,29.45,SW,225,3.0,10.0,69,0.00,,,0.00,VWS V14.01,2013-01-10 22:20:00,
2013-01-10 16:30:00,58.9,48.4,29.45,SW,225,3.0,12.0,68,0.00,,,0.00,VWS V14.01,2013-01-10 22:30:00,
2013-01-10 16:40:00,58.4,48.7,29.45,SW,225,2.0,10.0,70,0.00,,,0.00,VWS V14.01,2013-01-10 22:40:00,
2013-01-10 16:50:00,58.0,48.3,29.46,SW,225,3.0,8.0,70,0.00,,,0.00,VWS V14.01,2013-01-10 22:50:00,
2013-01-10 17:00:00,57.4,48.1,29.46,SW,225,2.0,9.0,71,0.00,,,0.00,VWS V14.01,2013-01-10 23:00:00,
2013-01-10 17:10:00,57.0,48.1,29.46,SW,225,1.0,4.0,72,0.00,,,0.00,VWS V14.01,2013-01-10 23:10:00,
2013-01-10 17:20:00,56.3,47.8,29.47,SW,225,2.0,7.0,73,0.00,,,0.00,VWS V14.01,2013-01-10 23:20:00,
2013-01-10 17:30:00,55.8,47.7,29.47,SW,225,1.0,7.0,74,0.00,,,0.00,VWS V14.01,2013-01-10 23:30:00,
2013-01-10 17:40:00,55.4,47.6,29.47,SW,225,1.0,6.0,75,0.00,,,0.00,VWS V14.01,2013-01-10 23:40:00,
2013-01-10 17:50:00,54.9,47.5,29.48,SW,225,0.0,5.0,76,0.00,,,0.00,VWS V14.01,2013-01-10 23:50:00,
2013-01-10 18:00:00,54.4,47.3,29.47,SSW,202,0.0,2.0,77,0.00,,,0.00,VWS V14.01,2013-01-11 00:00:00,
2013-01-10 18:10:00,53.9,47.2,29.48,SSW,202,0.0,3.0,78,0.00,,,0.00,VWS V14.01,2013-01-11 00:10:00,
2013-01-10 18:20:00,53.5,46.8,29.48,SSW,202,0.0,2.0,78,0.00,,,0.00,VWS V14.01,2013-01-11 00:20:00,
2013-01-10 18:30:00,53.0,46.7,29.48,SSW,202,0.0,1.0,79,0.00,,,0.00,VWS V14.01,2013-01-11 00:30:00,
2013-01-10 18:40:00,52.5,46.5,29.48,SSW,202,0.0,2.0,80,0.00,,,0.00,VWS V14.01,2013-01-11 00:40:00,
2013-01-10 18:50:00,52.0,46.4,29.48,SSW,202,0.0,1.0,81,0.00,,,0.00,VWS V14.01,2013-01-11 00:50:00,
2013-01-10 19:00:00,51.5,46.2,29.48,SSW,202,0.0,0.0,82,0.00,,,0.00,VWS V14.01,2013-01-11 01:00:00,
2013-01-10 19:10:00,51.2,45.9,29.49,SSW,202,0.0,0.0,82,0.00,,,0.00,VWS V14.01,2013-01-11 01:10:00,
2013-01-10 19:20:00,50.8,45.5,29.49,SSW,202,0.0,1.0,82,0.00,,,0.00,VWS V14.01,2013-01-11 01:20:00,
2013-01-10 19:30:00,50.5,45.5,29.48,SSW,202,0.0,0.0,83,0.00,,,0.00,VWS V14.01,2013-01-11 01:30:00,
2013-01-10 19:40:00,50.2,45.6,29.48,SSW,202,0.0,0.0,84,0.00,,,0.00,VWS V14.01,2013-01-11 01:40:00,
2013-01-10 19:50:00,49.9,45.6,29.48,SSW,202,0.0,0.0,85,0.00,,,0.00,VWS V14.01,2013-01-11 01:50:00,
2013-01-10 20:00:00,49.6,45.3,29.48,SSW,202,0.0,1.0,85,0.00,,,0.00,VWS V14.01,2013-01-11 02:00:00,
2013-01-10 20:10:00,49.4,45.4,29.48,SSW,202,0.0,0.0,86,0.00,,,0.00,VWS V14.01,2013-01-11 02:10:00,
2013-01-10 20:20:00,49.1,45.1,29.48,SSW,202,0.0,1.0,86,0.00,,,0.00,VWS V14.01,2013-01-11 02:20:00,
2013-01-10 20:30:00,48.7,44.7,29.49,SSW,202,0.0,0.0,86,0.00,,,0.00,VWS V14.01,2013-01-11 02:30:00,
2013-01-10 20:40:00,48.4,44.7,29.48,SSW,202,0.0,0.0,87,0.00,,,0.00,VWS V14.01,2013-01-11 02:40:00,
2013-01-10 20:50:00,48.2,44.5,29.48,SSW,202,0.0,0.0,87,0.00,,,0.00,VWS V14.01,2013-01-11 02:50:00,
2013-01-10 21:00:00,47.9,44.2,29.48,SSW,202,0.0,1.0,87,0.00,,,0.00,VWS V14.01,2013-01-11 03:00:00,
2013-01-10 21:10:00,47.7,44.3,29.48,SSW,202,0.0,0.0,88,0.00,,,0.00,VWS V14.01,2013-01-11 03:10:00,
2013-01-10 21:20:00,47.4,44.0,29.49,SSW,202,0.0,1.0,88,0.00,,,0.00,VWS V14.01,2013-01-11 03:20:00,
2013-01-10 21:30:00,47.3,44.2,29.49,SSW,202,0.0,1.0,89,0.00,,,0.00,VWS V14.01,2013-01-11 03:30:00,
2013-01-10 21:40:00,47.2,44.1,29.49,SSW,202,0.0,0.0,89,0.00,,,0.00,VWS V14.01,2013-01-11 03:40:00,
2013-01-10 21:50:00,47.1,44.0,29.48,SSW,202,0.0,1.0,89,0.00,,,0.00,VWS V14.01,2013-01-11 03:50:00,
2013-01-10 22:00:00,46.9,43.8,29.48,SSW,202,0.0,0.0,89,0.00,,,0.00,VWS V14.01,2013-01-11 04:00:00,
2013-01-10 22:10:00,46.7,43.9,29.47,SSW,202,0.0,1.0,90,0.00,,,0.00,VWS V14.01,2013-01-11 04:10:00,
2013-01-10 22:20:00,46.5,43.7,29.47,SSW,202,0.0,1.0,90,0.00,,,0.00,VWS V14.01,2013-01-11 04:20:00,
2013-01-10 22:30:00,46.4,43.6,29.47,SSW,202,0.0,1.0,90,0.00,,,0.00,VWS V14.01,2013-01-11 04:30:00,
2013-01-10 22:40:00,46.2,43.4,29.47,SSW,202,0.0,1.0,90,0.00,,,0.00,VWS V14.01,2013-01-11 04:40:00,
2013-01-10 22:50:00,46.1,43.3,29.48,SSW,202,0.0,1.0,90,0.00,,,0.00,VWS V14.01,2013-01-11 04:50:00,
2013-01-10 23:00:00,46.1,43.6,29.47,SSW,202,0.0,1.0,91,0.00,,,0.00,VWS V14.01,2013-01-11 05:00:00,
2013-01-10 23:10:00,46.1,43.6,29.48,SSW,202,0.0,1.0,91,0.00,,,0.00,VWS V14.01,2013-01-11 05:10:00,
2013-01-10 23:20:00,46.1,43.6,29.49,SSW,202,0.0,1.0,91,0.00,,,0.00,VWS V14.01,2013-01-11 05:20:00,
2013-01-10 23:30:00,46.0,43.5,29.49,SSW,202,0.0,4.0,91,0.00,,,0.00,VWS V14.01,2013-01-11 05:30:00,
2013-01-10 23:40:00,46.0,43.5,29.48,SSW,202,0.0,1.0,91,0.00,,,0.00,VWS V14.01,2013-01-11 05:40:00,
2013-01-10 23:50:00,46.1,43.6,29.49,SSW,202,0.0,2.0,91,0.00,,,0.00,VWS V14.01,2013-01-11 05:50:00,